This is the latest recevied weather packets stored in our database for station/object VE3DVC. If no packets are shown the sender has not sent any weather packets the latest 10 day(s).
| Time | Temp. | Humidity | Pressure | Rain* | Wind** | Luminosity | Snow |
|---|---|---|---|---|---|---|---|
| 1788622840 | 21.11° C | 79% | 1015.4 hPa | 0 mm | - | - | - |
| 1788622120 | 21.11° C | 79% | 1015.4 hPa | 0 mm | - | - | - |
| 1788620807 | 20.56° C | 82% | 1015.3 hPa | 0 mm | - | - | - |
| 1788620088 | 20° C | 83% | 1015.2 hPa | 0 mm | - | - | - |
| 1788619368 | 20° C | 83% | 1015.3 hPa | 0 mm | - | - | - |
| 1788618647 | 20° C | 86% | 1015.2 hPa | 0 mm | - | - | - |
| 1788617928 | 19.44° C | 87% | 1015.2 hPa | 0 mm | - | - | - |
| 1788617207 | 19.44° C | 88% | 1015.1 hPa | 0 mm | - | - | - |
| 1788616488 | 18.33° C | 92% | 1015.1 hPa | 0 mm | - | - | - |
| 1788615767 | 18.33° C | 93% | 1015.1 hPa | 0 mm | - | - | - |
| 1788615048 | 17.78° C | 93% | 1015.2 hPa | 0 mm | - | - | - |
| 1788614328 | 17.78° C | 92% | 1015.3 hPa | 0 mm | - | - | - |
| 1788613608 | 17.22° C | 93% | 1015.3 hPa | 0 mm | - | - | - |
| 1788612887 | 17.22° C | 93% | 1015.4 hPa | 0 mm | - | - | - |
| 1788612168 | 17.22° C | 93% | 1015.4 hPa | 0 mm | - | - | - |
| 1788611447 | 16.67° C | 93% | 1015.3 hPa | 0 mm | - | - | - |
| 1788610728 | 16.67° C | 93% | 1015.4 hPa | 0 mm | - | - | - |
| 1788610007 | 16.11° C | 93% | 1015.4 hPa | 0 mm | - | - | - |
| 1788609288 | 16.11° C | 93% | 1015.3 hPa | 0 mm | - | - | - |
| 1788608568 | 16.11° C | 93% | 1015.3 hPa | 0 mm | - | - | - |
| 1788607848 | 16.11° C | 93% | 1015.3 hPa | 0 mm | - | - | - |
| 1788607127 | 16.11° C | 93% | 1015.2 hPa | 0 mm | - | - | - |
| 1788605053 | 16.11° C | 93% | 1014.9 hPa | 0 mm | - | - | - |
| 1788604333 | 16.67° C | 93% | 1014.6 hPa | 0 mm | - | - | - |
| 1788603612 | 16.67° C | 92% | 1014.4 hPa | 0 mm | - | - | - |
* Rain latest hour (hover to see other rain measurements)
** Current wind speed in m/s (hover to see current wind gust speed)